RH
33 38 33 39 74 66 50 50 54 48 49 45 35 26 22 15 9 4 3 3 3 3 4 4 4 4 5 5 8 11 12 13 13 19 31 52 30 48 40 36 63 52 52 72 70
33 51 45 66 90 78 59 66 63 58 63 51 29 22 19 14 5 3 3 3 3 3 3 3 4 5 5 5 7 8 10 11 12 14 31 54 33 41 44 36 42 43 44 54 51
45 44 58 73 100 94 72 68 54 75 60 47 24 22 18 10 4 3 3 3 3 3 3 3 4 5 5 6 6 7 8 10 12 14 29 43 36 35 39 44 52 57 63 63 59
54 57 70 100 100 100 75 51 65 70 45 42 26 23 21 8 5 4 3 4 4 3 3 3 4 5 6 6 6 8 7 8 10 11 23 33 38 31 36 44 49 56 58 60 48
67 92 88 100 94 60 37 44 54 50 34 41 28 27 20 6 5 4 3 4 4 4 4 4 4 5 6 8 8 10 10 9 9 10 20 25 34 32 34 35 39 36 30 41 54
77 56 71 66 42 35 46 42 37 33 36 36 31 32 23 8 5 4 4 4 4 4 4 4 4 5 6 8 9 11 16 16 11 11 21 22 26 36 36 37 36 34 28 29 43
36 43 33 35 49 50 57 68 57 42 32 31 31 45 26 12 6 5 4 4 4 4 4 4 4 5 6 8 11 12 20 28 49 18 34 19 24 34 40 39 38 35 32 25 38
43 34 46 67 60 47 36 47 57 54 36 38 34 45 39 24 8 6 5 4 4 4 4 4 4 5 6 9 12 14 23 32 47 39 31 20 23 35 45 46 45 36 36 38 46
56 55 64 74 86 58 52 72 54 62 47 55 46 32 55 28 12 8 5 5 4 4 4 4 4 5 7 11 15 16 24 68 100 47 22 22 25 36 52 78 53 43 41 41 46
68 84 72 75 100 87 72 80 60 86 67 47 64 39 52 32 33 12 7 5 5 5 5 5 6 6 9 13 16 19 27 65 91 25 24 27 33 40 58 61 78 88 59 47 52
85 84 74 100 100 100 93 56 61 71 67 59 54 58 40 39 28 12 9 8 6 5 5 6 7 11 14 17 20 26 30 93 72 49 32 38 41 44 74 75 90 100 78 72 71
53 84 100 100 98 80 85 72 70 74 79 52 38 58 41 53 27 18 9 9 8 7 6 7 8 12 18 26 24 35 34 82 79 63 42 56 36 45 81 93 100 100 100 96 71
63 71 91 96 91 100 100 100 100 100 79 87 55 48 68 46 35 25 14 9 10 10 9 9 10 12 16 18 28 42 52 99 52 63 93 79 50 56 61 97 93 100 100 98 98
84 83 82 92 100 100 100 100 100 100 99 87 72 55 46 45 53 29 26 11 11 14 13 12 12 15 20 18 18 29 31 93 74 83 78 100 54 60 50 67 100 100 100 100 100
100 90 63 88 100 100 99 93 100 100 100 94 89 70 40 66 56 41 22 28 12 12 18 20 19 16 18 26 27 20 49 68 67 68 100 100 68 78 57 44 78 100 100 100 100
100 100 100 85 94 100 100 98 100 100 100 100 93 97 62 65 76 62 42 26 35 22 14 16 25 23 25 28 30 40 49 54 77 65 92 100 97 69 58 45 39 80 92 100 100
52 81 100 100 98 100 100 82 90 100 100 100 100 100 68 49 76 78 61 38 34 51 53 33 35 38 33 33 30 39 36 52 60 68 96 89 100 54 67 56 53 70 88 93 96
93 84 100 100 100 100 100 100 84 100 100 100 100 100 100 66 81 92 80 69 44 40 63 72 56 69 70 37 29 35 50 83 82 93 92 72 90 84 65 70 58 42 40 51 84
100 100 100 93 96 95 100 100 72 100 100 100 100 100 100 100 83 86 78 78 75 51 46 71 68 74 54 73 53 46 54 70 98 93 87 91 84 88 45 52 46 36 34 44 88
100 100 100 100 99 100 100 100 73 100 100 100 100 100 100 100 100 100 93 88 77 83 63 50 85 98 96 81 75 70 63 72 71 76 82 100 99 89 96 67 80 46 40 50 53
100 100 100 100 95 100 100 65 100 100 100 100 100 100 100 100 100 100 100 100 89 74 90 80 57 91 100 95 89 98 90 92 82 75 76 85 98 98 98 70 60 72 60 47 57
97 79 69 84 81 79 99 100 100 100 100 100 100 100 100 100 100 100 94 100 100 99 79 95 88 74 94 100 100 100 100 100 97 100 95 87 91 100 95 83 60 69 83 60 62
100 100 100 100 100 100 100 99 100 100 99 100 100 100 100 100 100 100 100 94 100 100 100 99 100 92 81 75 99 100 100 100 100 93 86 99 100 100 100 100 95 92 86 82 59
100 100 100 100 100 100 100 100 91 89 95 100 100 100 100 100 100 100 100 100 99 100 100 100 100 100 100 76 74 98 100 100 100 100 71 67 95 84 82 100 100 99 100 100 90
96 99 94 99 98 96 96 100 100 100 98 89 100 100 99 100 100 100 100 100 100 90 100 100 100 100 100 100 98 79 93 100 97 100 100 89 83 69 52 42 67 100 100 98 96
82 84 85 92 91 97 94 99 100 100 99 100 99 98 100 100 100 100 100 100 100 85 88 100 100 100 99 100 100 100 76 83 100 100 100 100 100 100 86 68 51 37 50 100 100
72 84 85 87 85 89 88 87 90 89 97 100 98 100 100 100 100 100 100 100 100 100 74 100 100 100 100 85 85 100 99 46 88 80 91 100 84 96 99 84 78 53 43 40 40
Wind_Speed
24 29 29 30 35 38 43 50 56 61 67 76 86 94 106 114 88 67 57 60 70 76 85 97 116 134 139 152 153 145 133 134 114 113 112 113 124 122 116 112 95 90 86 87 81
26 29 28 33 38 41 46 53 57 62 69 78 86 98 111 103 80 60 48 46 55 65 76 81 88 100 120 143 153 151 140 132 120 110 108 108 120 122 117 111 105 99 92 87 85
28 26 31 40 42 45 50 56 58 63 71 79 87 100 112 92 77 56 44 42 42 48 60 70 73 78 90 117 141 144 146 141 133 107 109 109 123 119 114 111 105 98 93 92 87
30 33 37 44 40 47 55 58 60 66 72 81 90 102 114 85 69 58 37 33 33 36 43 52 63 67 73 88 120 133 142 141 133 113 110 113 125 118 110 107 109 107 103 93 85
32 35 35 35 41 49 53 58 61 68 73 81 91 104 114 81 62 48 34 25 24 26 33 42 55 61 64 73 90 100 115 136 131 115 119 116 121 114 113 111 111 111 103 96 86
31 34 34 43 49 50 56 59 64 72 75 83 93 104 117 85 67 51 33 22 17 20 26 36 49 56 59 67 76 87 103 115 128 114 120 122 122 112 112 109 108 107 103 96 95
38 34 37 43 50 52 57 61 67 72 80 87 94 103 114 94 73 54 37 23 15 14 20 30 39 49 54 61 68 81 88 101 110 115 114 121 119 110 107 105 105 106 105 99 96
36 33 43 50 55 58 58 64 71 77 77 87 96 100 110 105 78 57 39 26 15 11 16 25 35 46 50 55 67 83 88 96 103 103 111 120 114 105 102 99 98 100 99 93 93
38 36 46 55 56 59 63 66 72 75 80 84 92 97 102 104 83 62 40 28 16 7 11 20 32 42 48 56 65 78 87 96 81 109 114 116 110 105 97 80 92 95 94 94 93
40 43 51 56 57 59 60 64 72 75 80 85 88 96 97 101 89 68 42 29 19 3 7 20 29 37 46 56 65 71 85 99 101 108 115 114 106 107 94 85 78 77 89 92 90
42 48 53 54 53 57 63 69 70 74 78 84 87 92 93 96 92 67 45 33 27 11 8 17 27 37 45 52 59 64 82 93 96 97 106 110 105 105 95 84 78 80 77 85 90
44 43 48 51 54 60 65 67 71 75 78 82 86 88 89 91 93 71 55 39 30 25 16 12 21 33 45 54 58 65 75 91 100 96 108 110 105 102 86 86 74 75 74 77 87
46 47 48 53 57 62 63 66 68 72 76 78 80 83 81 86 88 80 60 46 36 27 20 13 15 26 40 51 62 77 81 89 89 100 104 107 104 101 95 86 80 69 80 76 79
48 51 50 57 64 61 60 67 68 69 72 73 78 80 80 79 81 81 66 51 44 38 27 16 12 18 24 36 52 67 73 86 86 93 104 102 105 99 99 91 81 72 66 71 75
55 53 58 61 60 62 61 66 68 71 69 71 74 77 76 70 74 77 74 63 47 48 42 24 15 10 20 30 42 48 69 81 88 94 98 98 98 93 96 98 86 81 74 66 67
55 55 58 57 60 63 62 67 65 67 65 68 70 67 70 67 65 69 70 70 72 51 44 44 31 18 13 21 33 47 59 72 82 90 97 100 96 102 95 91 92 84 78 73 66
60 57 56 59 63 62 66 63 65 70 70 62 64 61 66 63 56 59 63 62 63 68 67 40 36 33 15 9 23 43 52 64 77 85 92 98 91 99 94 91 89 88 78 74 74
57 58 61 63 62 62 64 67 62 62 61 61 57 54 58 57 52 48 53 55 55 55 58 63 48 33 26 14 5 25 49 65 69 77 86 97 98 90 90 90 91 91 90 79 74
64 58 61 61 64 63 65 68 53 60 53 60 52 50 52 53 48 42 44 47 48 49 49 50 52 62 34 29 10 13 26 52 67 75 87 90 93 94 92 93 92 89 86 79 71
70 63 66 64 60 62 63 68 49 51 55 50 47 46 47 48 41 37 35 38 40 41 41 44 43 44 42 42 26 14 8 24 46 61 80 83 89 88 90 92 89 86 82 79 77
67 65 65 60 61 63 63 51 47 51 59 47 44 47 43 44 40 32 31 29 32 34 33 31 34 32 32 33 34 29 13 12 15 23 56 80 83 88 89 91 90 88 85 83 80
64 59 56 58 60 57 53 60 59 59 54 49 44 42 40 41 40 32 28 27 24 26 25 26 23 25 25 23 23 25 25 12 9 20 21 28 35 52 83 91 90 91 90 89 87
60 61 65 64 61 60 64 61 58 57 49 43 35 38 35 37 36 37 28 27 21 19 20 17 18 16 15 15 14 12 14 14 17 6 20 28 36 37 46 62 78 91 93 91 91
53 55 58 59 59 56 56 54 51 44 41 39 39 41 36 34 34 34 30 25 21 18 15 17 14 12 13 8 9 8 7 4 6 10 10 26 33 35 36 47 43 72 90 94 96
56 55 57 57 58 56 55 53 52 48 47 41 37 39 37 35 34 33 33 31 24 19 18 15 16 15 12 11 7 8 7 6 3 0 1 3 2 15 37 43 45 48 60 84 97
61 56 57 58 55 55 54 55 55 54 50 45 43 40 40 39 39 36 35 34 32 25 23 23 22 20 19 17 13 9 10 8 12 6 7 8 8 4 5 8 37 59 67 69 75
63 63 62 61 64 63 62 57 57 54 54 54 48 43 43 42 40 41 41 38 37 33 30 29 30 29 26 23 18 14 22 21 16 14 13 11 18 9 12 11 9 17 47 66 81
Wind_Direction
298 306 315 322 328 324 330 331 329 327 326 323 324 320 320 320 316 305 287 267 257 251 245 239 233 230 231 232 230 228 229 233 226 228 228 227 233 234 233 231 228 230 228 231 235
309 311 319 326 324 322 328 329 327 326 326 324 326 326 323 328 320 312 296 275 260 250 245 240 236 233 227 227 227 227 224 229 222 222 219 220 229 231 231 231 232 234 232 231 234
329 324 329 325 322 322 325 326 328 327 327 331 332 334 333 334 325 321 304 285 268 251 245 239 236 233 227 225 222 226 223 226 223 217 214 218 226 226 229 230 229 227 227 228 228
336 324 325 323 324 325 327 328 329 330 332 336 339 339 341 339 331 325 313 292 279 261 244 237 233 230 225 222 223 223 221 223 222 216 211 216 225 225 225 226 229 229 226 226 227
327 325 330 339 334 332 337 333 335 334 336 341 345 346 346 347 337 329 324 310 288 263 244 229 226 224 221 218 217 217 219 217 220 215 212 215 223 224 223 225 228 230 231 231 230
335 333 338 341 339 338 340 340 340 340 340 344 349 352 349 352 350 338 334 324 293 263 236 224 222 218 214 215 212 208 211 214 216 210 210 213 219 219 221 222 225 229 233 233 233
336 340 345 344 344 342 348 342 342 344 347 351 352 355 356 356 356 349 342 335 300 263 235 217 213 213 211 208 206 201 203 207 212 205 204 212 216 214 216 219 224 227 230 231 233
346 339 347 347 346 346 346 348 349 350 349 353 353 358 359 355 357 355 348 347 323 259 228 205 205 204 203 199 197 198 196 201 208 202 203 211 211 212 212 215 220 225 226 223 226
341 341 340 340 344 345 349 351 351 352 354 354 354 359 0 1 359 357 353 360 346 282 214 195 195 194 194 195 194 193 192 190 189 201 202 207 207 209 209 208 215 219 222 224 224
329 331 332 339 340 343 345 350 349 352 353 355 357 358 2 4 5 358 357 10 6 355 169 178 180 186 188 187 190 190 192 191 197 200 201 204 202 207 206 207 209 212 217 222 224
325 327 330 340 340 342 342 343 347 350 352 354 358 359 1 4 8 6 2 22 28 37 120 165 169 178 179 182 185 184 187 189 198 200 200 203 199 203 204 205 208 207 212 216 219
329 329 333 337 337 338 341 345 347 347 349 351 353 359 0 5 8 9 10 20 41 41 80 149 166 176 178 177 181 179 188 188 196 199 196 202 199 201 198 203 205 209 209 210 216
329 331 334 335 334 338 340 341 345 346 348 350 351 357 1 2 8 16 15 18 35 49 68 89 141 178 183 182 181 181 188 187 194 195 191 202 198 198 198 201 205 206 209 210 214
332 332 331 336 336 339 340 342 344 344 346 347 350 352 359 2 5 13 29 27 33 48 59 63 122 164 177 188 191 187 190 188 191 195 197 202 198 199 202 200 202 206 206 213 215
322 329 330 332 334 334 336 337 339 341 342 345 347 351 351 1 2 11 21 39 41 44 49 60 76 128 167 180 181 187 189 189 195 197 197 204 202 200 202 202 203 208 211 210 216
318 321 323 327 329 329 328 333 334 337 339 340 344 350 351 358 5 8 16 28 42 51 64 59 57 68 128 163 176 182 191 192 198 197 198 203 207 201 204 206 207 210 212 213 216
317 311 316 319 322 325 328 331 332 329 334 336 340 344 349 354 4 5 12 20 34 41 49 63 66 60 70 143 180 186 192 198 201 197 198 202 208 204 204 206 210 210 214 215 218
314 313 310 315 314 318 319 326 327 329 330 331 333 339 346 349 356 7 7 13 22 39 44 51 61 69 68 69 193 192 198 194 201 196 199 206 211 218 205 209 212 212 216 217 221
313 309 307 304 309 311 314 321 322 321 321 320 327 330 339 344 347 358 5 7 14 24 37 49 50 56 71 74 85 198 202 200 202 199 203 208 213 215 211 213 216 216 218 219 221
308 306 305 308 308 314 310 311 316 319 321 318 319 323 331 339 337 346 0 2 6 15 28 33 48 48 57 68 79 86 196 221 215 211 206 209 215 219 220 213 216 216 216 220 223
300 300 300 301 306 309 306 311 315 314 317 320 312 313 320 331 331 333 349 357 354 0 14 33 34 46 48 49 54 64 79 184 211 219 226 216 216 219 223 220 218 219 219 220 222
299 299 304 306 309 310 316 313 311 309 312 314 308 310 313 322 325 322 324 338 346 344 355 7 33 38 35 41 45 54 58 71 220 223 211 211 223 234 234 230 223 224 223 222 222
308 305 305 308 305 303 302 304 304 304 306 305 308 301 305 312 317 318 307 315 326 327 329 344 358 9 36 32 46 57 46 53 62 166 211 223 234 235 238 239 231 226 226 226 226
307 307 307 305 303 303 304 307 309 307 310 299 296 296 294 298 300 305 301 298 309 303 305 308 318 329 342 17 6 28 22 47 50 67 66 208 218 218 229 233 228 226 228 229 228
308 305 303 301 301 299 298 297 299 304 304 300 299 286 288 287 283 289 290 283 287 293 269 272 286 290 295 303 304 326 332 285 302 187 182 22 141 239 236 226 236 228 230 229 227
306 307 305 302 302 300 299 299 295 295 291 291 290 291 285 278 278 273 278 276 270 274 263 258 257 263 273 268 273 271 285 254 249 286 275 265 268 275 305 213 233 232 233 227 229
310 305 306 302 301 299 295 292 289 289 288 282 276 275 278 276 265 268 272 265 259 264 262 257 259 253 254 258 259 254 245 230 245 257 264 239 267 288 286 294 291 247 237 237 238